Regional Weather Roundup
Issued by NWS Little Rock, AR

Home | Current Version | Previous Version | Graphics & Text | Print | Product List | Glossary On
Versions: 1 2 3 4 5 6 7 8 9 10 11 12 13 14 15 16 17 18 19 20 21 22 23 24 25 26 27 28 29 30 31 32 33 34 35 36 37 38 39 40 41 42 43 44 45 46 47 48 49 50
000
ASUS44 KLZK 272005
RWRLZK

WEATHER ROUNDUP FOR ARKANSAS
NATIONAL WEATHER SERVICE LITTLE ROCK AR
300 PM CDT MON APR 27 2015

NOTE: "FAIR" INDICATES FEW OR NO CLOUDS BELOW 12,000 FEET WITH NO
SIGNIFICANT WEATHER AND/OR OBSTRUCTIONS TO VISIBILITY.

ARZ001-003-010-029-272100-
NORTHWEST ARKANSAS

CITY           SKY/WX    TMP DP  RH WIND       PRES   REMARKS
FAYETTEVILLE   PTSUNNY   63  37  38 E17G23    29.93F
FORT SMITH     MOSUNNY   67  34  29 E18G31    29.89F
HARRISON       LGT RAIN  63  34  33 NE15G22   29.97F
BENTONVILLE    PTSUNNY   63  32  31 E15G23    29.96S
ROGERS         PTSUNNY   62  33  33 E15G21    29.96R
SILOAM SPGS    CLOUDY   N/A N/A N/A E13G21    29.94F
HIGHFILL       CLOUDY    61  33  35 E13G24    29.94S
SPRINGDALE     CLOUDY    61  34  36 E15G22    29.96S
$$

ARZ004-005-016-272100-
NORTH CENTRAL ARKANSAS

CITY           SKY/WX    TMP DP  RH WIND       PRES   REMARKS
BATESVILLE     SUNNY     64  37  36 E20G26    29.99F
FLIPPIN        SUNNY     66  34  30 E13G18    29.97S
MTN HOME       SUNNY     66  33  29 E17G24    29.98F
$$

ARZ040-041-272100-
WEST CENTRAL ARKANSAS

CITY           SKY/WX    TMP DP  RH WIND       PRES   REMARKS
MENA           SUNNY     68  45  42 E16G25    29.86S
MOUNT IDA      SUNNY     65  40  39 E8G22     29.87F
$$

ARZ009-017-025-026-028-272100-
NORTHEAST ARKANSAS

CITY           SKY/WX    TMP DP  RH WIND       PRES   REMARKS
CORNING          N/A     66  37  34 NE21G29   30.01F
JONESBORO      MOSUNNY   63  42  46 NE16G31   29.98F
NEWPORT        SUNNY     64  40  41 NE15      30.00S
WALNUT RIDGE   SUNNY     64  39  39 NE18      29.99F
BLYTHEVILLE    MOSUNNY   65  38  36 NE18G25   29.99F
NW BLYTHEVILLE PTSUNNY   64  37  36 NE20G25   29.99
$$

ARZ022-023-033-042-044-272100-
CENTRAL ARKANSAS

CITY           SKY/WX    TMP DP  RH WIND       PRES   REMARKS
LITTLE ROCK    PTSUNNY   64  39  39 E22G28    29.94F
N LITTLE ROCK  PTSUNNY   64  45  51 E14G26    29.94F
JACKSONVILLE   SUNNY     64  40  41 E20G29    29.94F
SEARCY         SUNNY     65  41  41 NE17G24   29.98S
HOT SPRINGS    MOSUNNY   66  39  37 E18G31    29.89F
RUSSELLVILLE   SUNNY     66  37  34 E16G30    29.93F
CLINTON        FAIR      66  37  34 E12G20    29.98F
$$

ARZ036-272100-
EAST ARKANSAS

CITY           SKY/WX    TMP DP  RH WIND       PRES   REMARKS
WEST MEMPHIS   MOSUNNY   64  44  48 NE13      29.95F
$$

ARZ050-053-066-070-073-272100-
SOUTHWEST ARKANSAS

CITY           SKY/WX    TMP DP  RH WIND       PRES   REMARKS
CAMDEN         SUNNY     72  45  37 NE14G21   29.86S
TEXARKANA      MOSUNNY   69  52  54 E14G22    29.82S
EL DORADO      LGT RAIN  69  47  45 NE15G26   29.83F
DE QUEEN       LGT RAIN  66  45  46 E20G32    29.83S
$$

ARZ056-057-069-272100-
SOUTHEAST ARKANSAS

CITY           SKY/WX    TMP DP  RH WIND       PRES   REMARKS
PINE BLUFF     SUNNY     65  46  50 NE20G30   29.91F
STUTTGART      SUNNY     64  45  48 NE22      29.94F
MONTICELLO     SUNNY     68  48  48 NE18G26   29.87F

$$




USA.gov is the U.S. government's official web portal to all federal, state and local government web resources and services.